Home > Weather > Vientiane > Past weeks

Flag for Laos Past Weather in Vientiane, Laos — Yesterday and Last 2 Weeks

Now
86 °F

Rain. Broken clouds.


Feels Like: 97 °F
Forecast: 75 / 84 °F
Wind: 2 mph from Northwest

Location: Vientiane Airport

Current Time: Jul 29, 2016 at 2:56:46 PM

Latest Report: Jul 29, 2016 at 2:30 PM


Visibility: 5 mi

Pressure: 29.71 "Hg

Humidity: 75%

Dew Point: 77 °F

Location of VientianeLocation

Past Weather in Vientiane — Graph

°F

Vientiane Temperature Yesterday

Maximum temperature yesterday: 86 °F (at 2:00 PM)
Minimum temperature yesterday: 75 °F (at 7:00 AM)
Average temperature yesterday: 82 °F

High & Low Weather Summary for the Past Weeks

 TemperatureHumidityPressure
High97 °F (Jul 17, 3:00 PM)100% (Jul 15, 7:00 AM)29.89 "Hg (Jul 15, 7:00 AM)
Low75 °F (Jul 21, 6:00 PM)53% (Jul 16, 4:00 PM)29.56 "Hg (Jul 18, 5:00 PM)
Average85 °F76%29.73 "Hg
* Reported Jul 14 1:00 PM — Jul 29 1:30 PM, Vientiane, Weather by CustomWeather, © 2016

Note: Actual official high and low records may vary slightly from our data, if they occured in-between our weather recording intervals... More about our weather records

Advertising

Vientiane Weather History for the Previous 24 Hours

Scroll right to see more
 ConditionsComfort  
Time TempWeatherWind HumidityBarometerVisibility
1:30 PM
Fri, Jul 29
90 °FRain. Scattered clouds.5 mph67%29.71 "Hg5 mi
1:00 PM90 °FPartly sunny.5 mph67%29.71 "Hg6 mi
12:30 PM88 °FScattered clouds.5 mph66%29.77 "Hg6 mi
12:00 PM88 °FScattered clouds.2 mph66%29.77 "Hg5 mi
11:30 AM86 °FBroken clouds.5 mph75%29.77 "Hg5 mi
11:00 AM86 °FBroken clouds.5 mph75%29.77 "Hg5 mi
10:30 AM86 °FBroken clouds.2 mph75%29.77 "Hg5 mi
10:00 AM86 °FPartly sunny.2 mph75%29.77 "Hg4 mi
9:30 AM81 °FBroken clouds.2 mph84%29.77 "Hg4 mi
9:00 AM81 °FPartly sunny.2 mph84%29.77 "Hg4 mi
8:30 AM79 °FBroken clouds.5 mph89%29.77 "Hg4 mi
8:00 AM79 °FBroken clouds.5 mph89%29.77 "Hg4 mi
7:30 AM79 °FPartly sunny.2 mph89%29.74 "Hg4 mi
7:00 AM77 °FFog.2 mph94%29.74 "Hg3 mi
6:30 AM77 °FFog.2 mph94%29.71 "Hg3 mi
6:00 AM77 °FFog.2 mph94%29.71 "Hg2 mi
11:00 PM
Thu, Jul 28
79 °FThunderstorms. Passing clouds.2 mph89%29.74 "Hg2 mi
10:00 PM79 °FThunderstorms. Passing clouds.7 mph89%29.74 "Hg2 mi
9:30 PM81 °FThunderstorms. Passing clouds.7 mph84%29.74 "Hg2 mi
9:00 PM81 °FThunderstorms. Passing clouds.7 mph84%29.71 "Hg2 mi
8:30 PM81 °FThunderstorms. Passing clouds.5 mph89%29.71 "Hg2 mi
8:00 PM82 °FThunderstorms. Passing clouds.5 mph84%29.68 "Hg2 mi
7:00 PM82 °FThunderstorms. Partly cloudy.2 mph84%29.65 "Hg3 mi
6:30 PM82 °FFog.2 mph84%29.62 "Hg3 mi
6:00 PM82 °FBroken clouds.2 mph84%29.62 "Hg4 mi
5:30 PM84 °FBroken clouds.5 mph79%29.65 "Hg4 mi
4:30 PM84 °FRain. Broken clouds.7 mph79%29.62 "Hg3 mi
4:00 PM84 °FRain. Broken clouds.7 mph79%29.62 "Hg3 mi
3:30 PM84 °FDrizzle. Broken clouds.5 mph84%29.62 "Hg3 mi
3:00 PM86 °FRain. Broken clouds.5 mph79%29.62 "Hg2 mi
2:30 PM86 °FPartly sunny.5 mph75%29.65 "Hg5 mi
2:00 PM86 °FPartly sunny.5 mph75%29.65 "Hg5 mi
Weather by CustomWeather, © 2016

See weather overviewHow to use our weather pages